Location: ???????
(55.4362°N, 38.1183°E)
Time: 04:38:58
(UTC+00:00)

NOSS 8 (A) - Visible Passes

Search period start: 26 October 2021 00:00
Search period end: 05 November 2021 00:00
Orbit: 367 x 1765 km, 63.3° (Epoch: 04 October)

Date Brightness Start Highest point End Pass type
(mag) Time Alt. Az. Time Alt. Az. Time Alt. Az.
26 Oct 5.7 15:50:16 10° NW 15:52:53 25° NNE 15:53:24 24° NE visible
26 Oct 7.6 17:39:32 10° NW 17:39:57 13° NW 17:39:57 13° NW visible
27 Oct 5.9 14:53:55 10° NW 14:56:16 20° N 14:58:40 11° ENE visible
27 Oct 5.9 16:43:21 10° NW 16:45:14 32° NNW 16:45:14 32° NNW visible
28 Oct 5.4 15:47:12 10° NW 15:50:01 31° NNE 15:50:31 30° NE visible
28 Oct 7.5 17:36:30 10° WNW 17:37:05 15° WNW 17:37:05 15° WNW visible
29 Oct 5.8 14:50:57 10° NW 14:53:27 23° NNE 14:55:50 12° ENE visible
29 Oct 5.5 16:40:15 10° NW 16:42:24 41° NW 16:42:24 41° NW visible
30 Oct 5.0 15:44:04 10° NW 15:47:04 42° NNE 15:47:45 37° ENE visible
30 Oct 7.4 17:33:29 10° WNW 17:34:19 16° WNW 17:34:19 16° WNW visible
31 Oct 5.5 14:47:52 10° NW 14:50:33 27° NNE 14:53:08 13° ENE visible
31 Oct 5.2 16:37:07 10° NW 16:39:42 53° WNW 16:39:42 53° WNW visible
01 Nov 4.6 15:40:54 10° NW 15:44:03 59° NE 15:45:09 39° E visible
01 Nov 7.4 17:30:35 10° WNW 17:31:44 17° W 17:31:44 17° W visible
02 Nov 5.2 14:44:42 10° NW 14:47:35 35° NNE 14:50:39 12° E visible
02 Nov 5.4 16:34:02 10° WNW 16:37:15 48° SW 16:37:15 48° SW visible
03 Nov 4.5 15:37:42 10° NW 15:40:57 86° NE 15:42:51 29° SE visible
03 Nov 7.4 17:27:52 10° W 17:29:27 16° WSW 17:29:27 16° WSW visible
04 Nov 4.8 14:41:29 10° NW 14:44:33 47° NNE 14:48:23 10° ESE visible
04 Nov 6.2 16:30:59 10° WNW 16:34:08 32° SW 16:35:12 28° SSW visible
